Location: Newark
(15.4608°S, 41.1635°W)
Time: 07:28:05
(UTC+00:00)

Transit 4A - Pass Details

Date: 09 March 2021
Orbit: 869 x 975 km, 66.8° (Epoch: 22 April)

Event Time Altitude Azimuth Distance (km) Brightness Sun altitude
Rises 23:03:01 0° 323° (NW) 3,442 11.2 -29.4°
Reaches altitude 10° 23:05:37 10° 316° (NW) 2,507 10.5 -30.0°
Maximum altitude 23:11:01 41° 247° (WSW) 1,249 8.9 -31.2°
Drops below altitude 10° 23:16:30 10° 177° (S) 2,541 10.3 -32.5°
Sets 23:19:10 0° 170° (S) 3,494 11.0 -33.1°
